IW8RUI-5 Weather Reports


Display with metric or nautical units.
time (UTC)temp
F
wind
direction
speed
MPH
gust
MPH
rain 1hr
in
rain 24hr
in
rain mn
in
humidity
%
barometer
mb
20260903121429 74 156 0.0 0.0 0.00 0.00 0.00 10 1012.0
20260903120929 74 158 0.0 0.0 0.00 0.00 0.00 10 1012.0
20260903120429 75 143 0.0 0.0 0.00 0.00 0.00 10 1012.0
20260903115926 75 153 0.0 0.0 0.00 0.00 0.00 10 1012.0
20260903115428 75 165 0.0 0.0 0.00 0.00 0.00 10 1012.0
20260903114928 76 163 0.0 0.0 0.00 0.00 0.00 10 1012.0
20260903114426 76 167 0.0 0.0 0.00 0.00 0.00 10 1012.0
20260903113428 76 163 0.0 0.0 0.00 0.00 0.00 10 1012.0
20260903112429 77 143 0.0 0.0 0.00 0.00 0.00 10 1012.0
20260903111928 77 166 0.0 0.0 0.00 0.00 0.00 10 1012.0
20260903111428 77 155 0.0 0.0 0.00 0.00 0.00 10 1012.0
20260903110928 76 148 0.0 0.0 0.00 0.00 0.00 10 1012.0
20260903110427 76 167 0.0 0.0 0.00 0.00 0.00 10 1012.0
20260903110026 77 162 0.0 0.0 0.00 0.00 0.00 10 1012.0
20260903105926 77 162 0.0 0.0 0.00 0.00 0.00 10 1012.0
20260903105427 77 168 0.0 0.0 0.00 0.00 0.00 10 1012.0
20260903104927 77 143 0.0 0.0 0.00 0.00 0.00 10 1012.0
20260903104427 77 153 0.0 0.0 0.00 0.00 0.00 10 1012.0
20260903103927 76 169 0.0 0.0 0.00 0.00 0.00 10 1012.0
20260903103426 76 155 0.0 0.0 0.00 0.00 0.00 10 1012.0
20260903102926 77 163 0.0 0.0 0.00 0.00 0.00 10 1012.0
20260903102428 77 155 0.0 0.0 0.00 0.00 0.00 13 1012.0
20260903101927 77 156 0.0 0.0 0.00 0.00 0.00 13 1012.0
20260903101425 77 170 0.0 0.0 0.00 0.00 0.00 13 1012.0
20260903100927 76 169 0.0 0.0 0.00 0.00 0.00 13 1012.0
20260903100427 76 154 0.0 0.0 0.00 0.00 0.00 13 1012.0
20260903095927 76 151 0.0 0.0 0.00 0.00 0.00 13 1012.0
20260903095427 75 163 0.0 0.0 0.00 0.00 0.00 13 1013.0
20260903094928 75 144 0.0 0.0 0.00 0.00 0.00 13 1013.0
20260903094427 75 152 0.0 0.0 0.00 0.00 0.00 13 1013.0
20260903093927 75 169 0.0 0.0 0.00 0.00 0.00 13 1013.0
20260903093425 75 144 0.0 0.0 0.00 0.00 0.00 13 1013.0
20260903092927 75 166 0.0 0.0 0.00 0.00 0.00 13 1013.0
20260903092426 74 143 0.0 0.0 0.00 0.00 0.00 13 1013.0
20260903091927 74 169 0.0 0.0 0.00 0.00 0.00 13 1013.0
20260903091425 74 152 0.0 0.0 0.00 0.00 0.00 13 1013.0
20260903090927 74 150 0.0 0.0 0.00 0.00 0.00 13 1013.0
20260903090427 73 160 0.0 0.0 0.00 0.00 0.00 13 1013.0
20260903085925 73 160 0.0 0.0 0.00 0.00 0.00 13 1013.0
20260903085427 73 162 0.0 0.0 0.00 0.00 0.00 13 1013.0
20260903084927 73 143 0.0 0.0 0.00 0.00 0.00 13 1013.0
20260903084425 72 146 0.0 0.0 0.00 0.00 0.00 13 1013.0
20260903083927 72 160 0.0 0.0 0.00 0.00 0.00 14 1013.0
20260903083427 72 143 0.0 0.0 0.00 0.00 0.00 11 1013.0
20260903082927 71 149 0.0 0.0 0.00 0.00 0.00 11 1013.0
20260903081927 70 169 0.0 0.0 0.00 0.00 0.00 10 1012.0
20260903081428 70 168 0.0 0.0 0.00 0.00 0.00 12 1012.0
20260903080927 69 143 0.0 0.0 0.00 0.00 0.00 12 1012.0
20260903080427 69 170 0.0 0.0 0.00 0.00 0.00 12 1012.0
20260903075927 69 158 0.0 0.0 0.00 0.00 0.00 12 1012.0
20260903075427 68 143 0.0 0.0 0.00 0.00 0.00 10 1012.0
20260903074927 68 150 0.0 0.0 0.00 0.00 0.00 10 1012.0
20260903074427 68 143 0.0 0.0 0.00 0.00 0.00 10 1012.0
20260903073927 68 143 0.0 0.0 0.00 0.00 0.00 12 1012.0
20260903073427 67 152 0.0 0.0 0.00 0.00 0.00 12 1012.0
20260903072925 67 143 0.0 0.0 0.00 0.00 0.00 12 1012.0
20260903072425 66 161 0.0 0.0 0.00 0.00 0.00 10 1012.0
20260903071927 66 145 0.0 0.0 0.00 0.00 0.00 10 1012.0
20260903071427 66 168 0.0 0.0 0.00 0.00 0.00 10 1012.0
20260903070927 65 144 0.0 0.0 0.00 0.00 0.00 10 1012.0
20260903070427 65 147 0.0 0.0 0.00 0.00 0.00 10 1012.0
20260903065927 65 163 0.0 0.0 0.00 0.00 0.00 10 1012.0
20260903065425 65 168 0.0 0.0 0.00 0.00 0.00 10 1012.0
20260903064927 64 142 0.0 0.0 0.00 0.00 0.00 10 1012.0
20260903064427 64 162 0.0 0.0 0.00 0.00 0.00 10 1012.0
20260903063925 64 156 0.0 0.0 0.00 0.00 0.00 10 1012.0
20260903063425 63 155 0.0 0.0 0.00 0.00 0.00 10 1012.0
20260903062927 63 143 0.0 0.0 0.00 0.00 0.00 10 1012.0
20260903062425 63 151 0.0 0.0 0.00 0.00 0.00 10 1012.0
20260903061925 62 162 0.0 0.0 0.00 0.00 0.00 10 1012.0
20260903061427 62 168 0.0 0.0 0.00 0.00 0.00 10 1012.0
20260903060925 62 153 0.0 0.0 0.00 0.00 0.00 10 1012.0
20260903060427 62 165 0.0 0.0 0.00 0.00 0.00 10 1012.0
20260903055925 62 156 0.0 0.0 0.00 0.00 0.00 10 1012.0
20260903055425 62 167 0.0 0.0 0.00 0.00 0.00 10 1012.0
20260903054925 62 162 0.0 0.0 0.00 0.00 0.00 10 1012.0
20260903054426 62 154 0.0 0.0 0.00 0.00 0.00 10 1012.0
20260903053927 62 150 0.0 0.0 0.00 0.00 0.00 10 1012.0
20260903053425 62 165 0.0 0.0 0.00 0.00 0.00 10 1012.0
20260903052925 62 166 0.0 0.0 0.00 0.00 0.00 10 1012.0
20260903052425 62 161 0.0 0.0 0.00 0.00 0.00 10 1012.0
20260903051925 62 158 0.0 0.0 0.00 0.00 0.00 10 1012.0
20260903051425 62 169 0.0 0.0 0.00 0.00 0.00 10 1012.0
20260903050925 62 168 0.0 0.0 0.00 0.00 0.00 10 1012.0
20260903050425 62 150 0.0 0.0 0.00 0.00 0.00 10 1012.0
20260903045925 62 145 0.0 0.0 0.00 0.00 0.00 10 1012.0
20260903045425 62 145 0.0 0.0 0.00 0.00 0.00 10 1012.0
20260903044925 62 147 0.0 0.0 0.00 0.00 0.00 10 1012.0
20260903044427 62 155 0.0 0.0 0.00 0.00 0.00 10 1012.0
20260903043927 61 143 0.0 0.0 0.00 0.00 0.00 10 1012.0
20260903043425 61 163 0.0 0.0 0.00 0.00 0.00 10 1012.0
20260903042925 62 160 0.0 0.0 0.00 0.00 0.00 10 1012.0
20260903042425 62 154 0.0 0.0 0.00 0.00 0.00 10 1012.0
20260903041925 62 146 0.0 0.0 0.00 0.00 0.00 10 1012.0
20260903041425 62 164 0.0 0.0 0.00 0.00 0.00 10 1012.0
20260903040927 62 158 0.0 0.0 0.00 0.00 0.00 10 1012.0
20260903040425 62 144 0.0 0.0 0.00 0.00 0.00 10 1012.0
20260903035925 62 168 0.0 0.0 0.00 0.00 0.00 10 1012.0
20260903035425 62 168 0.0 0.0 0.00 0.00 0.00 10 1012.0
20260903034925 62 142 0.0 0.0 0.00 0.00 0.00 10 1012.0
20260903034425 62 142 0.0 0.0 0.00 0.00 0.00 10 1012.0
20260903033925 62 151 0.0 0.0 0.00 0.00 0.00 10 1012.0
20260903033428 62 167 0.0 0.0 0.00 0.00 0.00 10 1012.0
20260903032925 62 165 0.0 0.0 0.00 0.00 0.00 10 1012.0
20260903032425 62 169 0.0 0.0 0.00 0.00 0.00 10 1012.0
20260903031925 61 151 0.0 0.0 0.00 0.00 0.00 10 1012.0
20260903031425 61 158 0.0 0.0 0.00 0.00 0.00 10 1012.0
20260903030925 61 142 0.0 0.0 0.00 0.00 0.00 10 1012.0
20260903030425 61 170 0.0 0.0 0.00 0.00 0.00 10 1012.0
20260903025925 61 156 0.0 0.0 0.00 0.00 0.00 10 1012.0
20260903025425 62 142 0.0 0.0 0.00 0.00 0.00 10 1012.0
20260903024925 61 166 0.0 0.0 0.00 0.00 0.00 10 1012.0
20260903024425 62 156 0.0 0.0 0.00 0.00 0.00 10 1012.0
20260903023925 62 165 0.0 0.0 0.00 0.00 0.00 10 1012.0
20260903022427 61 146 0.0 0.0 0.00 0.00 0.00 10 1012.0
20260903021928 61 144 0.0 0.0 0.00 0.00 0.00 10 1012.0
20260903021425 60 144 0.0 0.0 0.00 0.00 0.00 10 1012.0
20260903020925 60 169 0.0 0.0 0.00 0.00 0.00 10 1013.0
20260903020427 60 145 0.0 0.0 0.00 0.00 0.00 10 1013.0
20260903015925 60 143 0.0 0.0 0.00 0.00 0.00 10 1013.0
20260903015425 61 142 0.0 0.0 0.00 0.00 0.00 10 1013.0
20260903014925 61 154 0.0 0.0 0.00 0.00 0.00 10 1013.0
20260903014425 61 147 0.0 0.0 0.00 0.00 0.00 10 1013.0
20260903013925 61 143 0.0 0.0 0.00 0.00 0.00 10 1013.0
20260903013427 61 170 0.0 0.0 0.00 0.00 0.00 10 1013.0
20260903012927 62 151 0.0 0.0 0.00 0.00 0.00 10 1013.0
20260903012425 62 170 0.0 0.0 0.00 0.00 0.00 10 1013.0
20260903011925 62 162 0.0 0.0 0.00 0.00 0.00 10 1013.0
20260903011425 62 143 0.0 0.0 0.00 0.00 0.00 10 1013.0
20260903010925 62 167 0.0 0.0 0.00 0.00 0.00 10 1013.0
20260903010425 62 170 0.0 0.0 0.00 0.00 0.00 10 1013.0
20260903005925 62 153 0.0 0.0 0.00 0.00 0.00 10 1013.0
20260903005427 62 142 0.0 0.0 0.00 0.00 0.00 10 1013.0
20260903004925 62 147 0.0 0.0 0.00 0.00 0.00 10 1013.0
20260903004425 62 145 0.0 0.0 0.00 0.00 0.00 10 1013.0
20260903003925 62 166 0.0 0.0 0.00 0.00 0.00 10 1013.0
20260903003425 63 160 0.0 0.0 0.00 0.00 0.00 10 1013.0
20260903002925 63 168 0.0 0.0 0.00 0.00 0.00 10 1013.0
20260903002427 63 169 0.0 0.0 0.00 0.00 0.00 10 1013.0
20260903001925 63 148 0.0 0.0 0.00 0.00 0.00 10 1013.0
20260903001425 63 169 0.0 0.0 0.00 0.00 0.00 10 1013.0
20260903000925 63 157 0.0 0.0 0.00 0.00 0.00 10 1013.0
20260903000425 62 169 0.0 0.0 0.00 0.00 0.00 10 1013.0
20260902235930 62 147 0.0 0.0 0.00 0.00 0.00 10 1013.0
20260902235425 62 162 0.0 0.0 0.00 0.00 0.00 10 1013.0
20260902234929 62 169 0.0 0.0 0.00 0.00 0.00 10 1013.0
20260902234427 62 143 0.0 0.0 0.00 0.00 0.00 10 1013.0
20260902233929 62 169 0.0 0.0 0.00 0.00 0.00 10 1013.0
20260902233425 62 168 0.0 0.0 0.00 0.00 0.00 10 1013.0
20260902232929 62 150 0.0 0.0 0.00 0.00 0.00 10 1013.0
20260902232429 62 169 0.0 0.0 0.00 0.00 0.00 10 1013.0
20260902231929 62 144 0.0 0.0 0.00 0.00 0.00 10 1013.0
20260902231426 62 149 0.0 0.0 0.00 0.00 0.00 10 1013.0
20260902230931 62 145 0.0 0.0 0.00 0.00 0.00 10 1013.0
20260902230427 63 142 0.0 0.0 0.00 0.00 0.00 10 1013.0
20260902225926 63 153 0.0 0.0 0.00 0.00 0.00 10 1013.0
20260902225427 63 143 0.0 0.0 0.00 0.00 0.00 10 1013.0
20260902224926 63 142 0.0 0.0 0.00 0.00 0.00 10 1013.0
20260902224427 63 167 0.0 0.0 0.00 0.00 0.00 10 1013.0
20260902223927 62 159 0.0 0.0 0.00 0.00 0.00 10 1013.0
20260902223427 62 155 0.0 0.0 0.00 0.00 0.00 10 1013.0
20260902222927 62 153 0.0 0.0 0.00 0.00 0.00 10 1013.0
20260902222426 62 167 0.0 0.0 0.00 0.00 0.00 10 1014.0
20260902221927 63 169 0.0 0.0 0.00 0.00 0.00 10 1014.0
20260902221427 63 147 0.0 0.0 0.00 0.00 0.00 10 1014.0
20260902220929 63 158 0.0 0.0 0.00 0.00 0.00 10 1014.0
20260902220428 62 147 0.0 0.0 0.00 0.00 0.00 10 1014.0
20260902215928 62 153 0.0 0.0 0.00 0.00 0.00 10 1014.0
20260902215428 62 165 0.0 0.0 0.00 0.00 0.00 10 1014.0
20260902214930 62 158 0.0 0.0 0.00 0.00 0.00 10 1014.0
20260902214427 62 169 0.0 0.0 0.00 0.00 0.00 10 1014.0
20260902213927 62 164 0.0 0.0 0.00 0.00 0.00 10 1014.0
20260902212928 62 144 0.0 0.0 0.00 0.00 0.00 10 1014.0
20260902212425 62 163 0.0 0.0 0.00 0.00 0.00 10 1013.0
20260902211930 62 168 0.0 0.0 0.00 0.00 0.00 10 1013.0
20260902211425 62 156 0.0 0.0 0.00 0.00 0.00 10 1013.0
20260902210929 62 161 0.0 0.0 0.00 0.00 0.00 10 1013.0
20260902210425 62 168 0.0 0.0 0.00 0.00 0.00 10 1013.0
20260902205925 62 142 0.0 0.0 0.00 0.00 0.00 10 1013.0
20260902205425 62 166 0.0 0.0 0.00 0.00 0.00 10 1013.0
20260902204925 62 167 0.0 0.0 0.00 0.00 0.00 10 1013.0
20260902204425 62 144 0.0 0.0 0.00 0.00 0.00 10 1013.0
20260902203927 62 145 0.0 0.0 0.00 0.00 0.00 10 1013.0
20260902203427 62 143 0.0 0.0 0.00 0.00 0.00 10 1013.0
20260902202925 62 151 0.0 0.0 0.00 0.00 0.00 10 1013.0
20260902202427 62 142 0.0 0.0 0.00 0.00 0.00 10 1013.0
20260902201925 62 146 0.0 0.0 0.00 0.00 0.00 10 1013.0
20260902200927 63 164 0.0 0.0 0.00 0.00 0.00 10 1014.0
20260902200425 63 162 0.0 0.0 0.00 0.00 0.00 10 1014.0
20260902195926 63 142 0.0 0.0 0.00 0.00 0.00 10 1014.0
20260902195425 63 168 0.0 0.0 0.00 0.00 0.00 10 1014.0
20260902194928 63 160 0.0 0.0 0.00 0.00 0.00 10 1014.0
20260902193925 63 154 0.0 0.0 0.00 0.00 0.00 10 1014.0
20260902193428 63 142 0.0 0.0 0.00 0.00 0.00 10 1014.0
20260902192930 63 167 0.0 0.0 0.00 0.00 0.00 10 1014.0
20260902192427 63 162 0.0 0.0 0.00 0.00 0.00 10 1014.0
20260902191925 63 143 0.0 0.0 0.00 0.00 0.00 10 1014.0
20260902191427 63 142 0.0 0.0 0.00 0.00 0.00 10 1014.0
20260902190927 63 168 0.0 0.0 0.00 0.00 0.00 10 1014.0
20260902190427 63 168 0.0 0.0 0.00 0.00 0.00 10 1014.0
20260902185926 63 169 0.0 0.0 0.00 0.00 0.00 10 1014.0
20260902185425 63 154 0.0 0.0 0.00 0.00 0.00 10 1014.0
20260902184926 64 143 0.0 0.0 0.00 0.00 0.00 10 1014.0
20260902184425 64 146 0.0 0.0 0.00 0.00 0.00 10 1014.0
20260902183925 64 166 0.0 0.0 0.00 0.00 0.00 10 1013.0
20260902183426 64 152 0.0 0.0 0.00 0.00 0.00 10 1013.0
20260902182927 64 170 0.0 0.0 0.00 0.00 0.00 10 1013.0
20260902182425 64 156 0.0 0.0 0.00 0.00 0.00 10 1013.0
20260902181929 64 161 0.0 0.0 0.00 0.00 0.00 10 1013.0
20260902181425 64 142 0.0 0.0 0.00 0.00 0.00 10 1013.0
20260902180927 65 165 0.0 0.0 0.00 0.00 0.00 10 1013.0
20260902180428 65 153 0.0 0.0 0.00 0.00 0.00 10 1013.0
20260902175927 66 165 0.0 0.0 0.00 0.00 0.00 10 1013.0
20260902175430 66 164 0.0 0.0 0.00 0.00 0.00 10 1013.0
20260902174927 66 167 0.0 0.0 0.00 0.00 0.00 10 1013.0
20260902174425 66 145 0.0 0.0 0.00 0.00 0.00 10 1013.0
20260902173928 66 155 0.0 0.0 0.00 0.00 0.00 10 1013.0
20260902173425 67 156 0.0 0.0 0.00 0.00 0.00 10 1013.0
20260902172927 67 146 0.0 0.0 0.00 0.00 0.00 10 1013.0
20260902171925 69 167 0.0 0.0 0.00 0.00 0.00 10 1013.0
20260902171426 70 143 0.0 0.0 0.00 0.00 0.00 12 1013.0
20260902170927 71 144 0.0 0.0 0.00 0.00 0.00 11 1013.0
20260902170427 72 169 0.0 0.0 0.00 0.00 0.00 11 1013.0
20260902165925 74 142 0.0 0.0 0.00 0.00 0.00 11 1013.0
20260902165427 75 148 0.0 0.0 0.00 0.00 0.00 10 1013.0
20260902164927 75 158 0.0 0.0 0.00 0.00 0.00 13 1013.0
20260902164425 75 158 0.0 0.0 0.00 0.00 0.00 13 1013.0
20260902163925 75 161 0.0 0.0 0.00 0.00 0.00 13 1014.0
20260902163428 75 156 0.0 0.0 0.00 0.00 0.00 13 1014.0
20260902162927 76 169 0.0 0.0 0.00 0.00 0.00 13 1014.0
20260902162425 76 158 0.0 0.0 0.00 0.00 0.00 13 1014.0
20260902161927 77 169 0.0 0.0 0.00 0.00 0.00 13 1014.0
20260902161427 77 149 0.0 0.0 0.00 0.00 0.00 13 1014.0
20260902160925 77 169 0.0 0.0 0.00 0.00 0.00 13 1014.0
20260902160427 78 144 0.0 0.0 0.00 0.00 0.00 10 1014.0
20260902155927 77 149 0.0 0.0 0.00 0.00 0.00 10 1014.0
20260902155427 77 146 0.0 0.0 0.00 0.00 0.00 10 1014.0
20260902154925 77 155 0.0 0.0 0.00 0.00 0.00 10 1014.0
20260902153925 77 146 0.0 0.0 0.00 0.00 0.00 10 1014.0
20260902153427 77 169 0.0 0.0 0.00 0.00 0.00 10 1014.0
20260902152927 77 143 0.0 0.0 0.00 0.00 0.00 10 1014.0
20260902152425 77 141 0.0 0.0 0.00 0.00 0.00 10 1014.0
20260902151925 77 155 0.0 0.0 0.00 0.00 0.00 10 1014.0
20260902151425 77 168 0.0 0.0 0.00 0.00 0.00 10 1014.0
20260902150927 76 156 0.0 0.0 0.00 0.00 0.00 10 1014.0
20260902150425 75 154 0.0 0.0 0.00 0.00 0.00 10 1014.0
20260902145925 75 167 0.0 0.0 0.00 0.00 0.00 10 1014.0
20260902145425 75 151 0.0 0.0 0.00 0.00 0.00 10 1014.0
20260902144927 75 153 0.0 0.0 0.00 0.00 0.00 10 1014.0
20260902144427 75 156 0.0 0.0 0.00 0.00 0.00 10 1014.0
20260902143925 75 169 0.0 0.0 0.00 0.00 0.00 10 1014.0
20260902143425 75 153 0.0 0.0 0.00 0.00 0.00 10 1014.0
20260902142927 75 156 0.0 0.0 0.00 0.00 0.00 10 1014.0
20260902142427 75 168 0.0 0.0 0.00 0.00 0.00 10 1014.0
20260902141925 75 169 0.0 0.0 0.00 0.00 0.00 10 1014.0
20260902141425 75 142 0.0 0.0 0.00 0.00 0.00 10 1014.0
20260902140925 75 166 0.0 0.0 0.00 0.00 0.00 10 1014.0
20260902140427 75 166 0.0 0.0 0.00 0.00 0.00 10 1014.0
20260902135925 75 143 0.0 0.0 0.00 0.00 0.00 10 1014.0
20260902135427 75 154 0.0 0.0 0.00 0.00 0.00 10 1014.0
20260902134927 74 142 0.0 0.0 0.00 0.00 0.00 10 1014.0
20260902134425 73 158 0.0 0.0 0.00 0.00 0.00 10 1014.0
20260902133926 72 146 0.0 0.0 0.00 0.00 0.00 10 1014.0
20260902133425 71 170 0.0 0.0 0.00 0.00 0.00 10 1014.0
20260902132927 71 159 0.0 0.0 0.00 0.00 0.00 10 1014.0
20260902132425 71 170 0.0 0.0 0.00 0.00 0.00 10 1014.0
20260902131427 72 145 0.0 0.0 0.00 0.00 0.00 10 1014.0
20260902130927 72 169 0.0 0.0 0.00 0.00 0.00 10 1014.0
20260902130427 73 157 0.0 0.0 0.00 0.00 0.00 10 1014.0
20260902125926 73 144 0.0 0.0 0.00 0.00 0.00 10 1014.0
20260902125428 73 167 0.0 0.0 0.00 0.00 0.00 10 1014.0
20260902124927 74 145 0.0 0.0 0.00 0.00 0.00 10 1014.0
20260902124427 74 153 0.0 0.0 0.00 0.00 0.00 10 1014.0
20260902123925 74 157 0.0 0.0 0.00 0.00 0.00 10 1014.0
20260902123426 73 142 0.0 0.0 0.00 0.00 0.00 10 1014.0
20260902122927 73 149 0.0 0.0 0.00 0.00 0.00 10 1014.0
20260902122426 73 153 0.0 0.0 0.00 0.00 0.00 10 1015.0
20260902121926 73 159 0.0 0.0 0.00 0.00 0.00 10 1015.0